OE5XCL Weather Reports


Display with metric or nautical units.
time (UTC)temp
F
wind
direction
speed
MPH
gust
MPH
rain 1hr
in
rain 24hr
in
rain mn
in
humidity
%
barometer
mb
20260506044543 0 243 0.0 0.0 0.00 0.10 0.00 1007.1
20260506043031 0 243 0.0 0.0 0.00 0.10 0.00 1007.2
20260506041527 0 243 0.0 0.0 0.00 0.10 0.00 1007.2
20260506040047 0 243 1.0 3.0 0.00 0.10 0.00 1007.2
20260506034518 0 243 0.0 0.0 0.00 0.10 0.00 1007.0
20260506033014 0 243 0.0 1.0 0.00 0.10 0.00 1007.5
20260506031524 0 243 0.0 0.0 0.00 0.10 0.00 1007.3
20260506030006 0 243 0.0 0.0 0.00 0.10 0.00 1007.2
20260506024503 0 243 0.0 0.0 0.00 0.10 0.00 1007.3
20260506023059 0 243 0.0 0.0 0.00 0.10 0.00 1007.5
20260506021557 0 243 2.0 3.0 0.00 0.10 0.00 1007.4
20260506020048 0 243 0.0 1.0 0.00 0.10 0.00 1007.3
20260506014544 0 243 0.0 1.0 0.00 0.10 0.00 1007.3
20260506013039 0 243 0.0 3.0 0.00 0.10 0.00 1007.4
20260506011537 0 243 0.0 3.0 0.00 0.10 0.00 1007.5
20260506010031 0 243 0.0 4.0 0.00 0.10 0.00 1007.6
20260506004527 0 269 0.0 8.0 0.00 0.10 0.00 1007.7
20260506003022 0 260 1.0 7.0 0.00 0.10 0.00 1007.7
20260506001517 0 268 3.0 11.0 0.00 0.10 0.00 1007.6
20260506000012 0 261 3.0 10.0 0.00 0.10 0.00 1007.5
20260505234508 0 267 4.0 11.0 0.00 0.10 0.00 1007.5
20260505233004 0 292 5.0 12.0 0.00 0.10 0.00 1007.4
20260505231606 0 271 3.0 9.0 0.00 0.10 0.00 1007.4
20260505230055 0 279 1.0 10.0 0.00 0.10 0.00 1007.2
20260505224551 0 271 3.0 9.0 0.00 0.10 0.00 1007.1
20260505223052 0 283 2.0 7.0 0.00 0.10 0.00 1006.9
20260505221541 0 283 0.0 2.0 0.00 0.10 0.00 1006.5
20260505220041 0 283 2.0 5.0 0.00 0.10 0.00 1006.5
20260505214539 0 283 0.0 7.0 0.00 0.10 0.10 1006.3
20260505213028 0 293 1.0 7.0 0.00 0.10 0.10 1006.3
20260505211524 0 295 0.0 2.0 0.00 0.10 0.10 1006.0
20260505210024 0 295 0.0 4.0 0.00 0.10 0.10 1005.8
20260505204515 0 295 0.0 1.0 0.00 0.10 0.10 1005.7
20260505203011 0 295 0.0 3.0 0.00 0.10 0.10 1005.6
20260505201507 0 295 0.0 3.0 0.00 0.10 0.10 1005.4
20260505200002 0 296 0.0 4.0 0.00 0.10 0.10 1005.1
20260505194612 0 296 2.0 5.0 0.04 0.10 0.10 1005.0
20260505193054 0 293 2.0 9.0 0.09 0.10 0.10 1005.0
20260505191549 0 289 0.0 1.0 0.10 0.10 0.10 1004.7
20260505190045 0 289 0.0 9.0 0.10 0.10 0.10 1004.3
20260505184540 0 325 6.0 16.0 0.06 0.06 0.06 1003.8
20260505183039 0 309 9.0 20.0 0.01 0.01 0.01 1003.9
20260505181531 0 284 12.0 23.0 0.00 0.00 0.00 1003.7
20260505180026 0 319 12.0 26.0 0.00 0.00 0.00 1003.4
20260505174522 0 285 14.0 32.0 0.00 0.00 0.00 1003.2
20260505173018 0 276 17.0 32.0 0.00 0.00 0.00 1002.7
20260505171518 0 86 0.0 0.0 0.00 0.00 0.00 1001.8
20260505170015 0 86 0.0 2.0 0.00 0.00 0.00 1001.7
20260505164505 0 86 0.0 2.0 0.00 0.00 0.00 1001.7
20260505163107 0 86 0.0 2.0 0.00 0.00 0.00 1001.8
20260505161614 0 86 0.0 2.0 0.00 0.00 0.00 1002.0
20260505153043 0 86 0.0 3.0 0.00 0.00 0.00 1002.2
20260505151540 0 86 0.0 3.0 0.00 0.00 0.00 1002.3
20260505130112 0 92 1.0 7.0 0.00 0.00 0.00 1003.7
20260505124600 0 83 2.0 5.0 0.00 0.00 0.00 1003.9
20260505123050 0 11 0.0 7.0 0.00 0.00 0.00 1004.2
20260505121547 0 360 2.0 9.0 0.00 0.00 0.00 1004.4
20260505120040 0 321 5.0 10.0 0.00 0.00 0.00 1004.6
20260505114536 0 309 6.0 10.0 0.00 0.00 0.00 1004.8
20260505113032 0 321 3.0 8.0 0.00 0.00 0.00 1004.8
20260505111534 0 330 2.0 12.0 0.00 0.00 0.00 1005.1
20260505101509 0 297 0.0 7.0 0.00 0.00 0.00 1005.9
20260505100009 0 322 3.0 9.0 0.00 0.00 0.00 1006.1
20260505094601 0 314 1.0 5.0 0.00 0.00 0.00 1006.2
20260505093107 0 302 3.0 9.0 0.00 0.00 0.00 1006.3
20260505091553 0 282 3.0 7.0 0.00 0.00 0.00 1006.5
20260505090047 0 331 1.0 6.0 0.00 0.00 0.00 1006.5
20260505084543 0 57 1.0 4.0 0.00 0.00 0.00 1006.7
20260505083039 0 57 0.0 3.0 0.00 0.00 0.00 1006.7
20260505081543 0 57 1.0 5.0 0.00 0.00 0.00 1006.8
20260505080033 0 340 0.0 2.0 0.00 0.00 0.00 1007.0
20260505074526 0 318 0.0 4.0 0.00 0.00 0.00 1007.1
20260505073025 0 313 1.0 5.0 0.00 0.00 0.00 1007.2
20260505071534 0 311 0.0 3.0 0.00 0.00 0.00 1007.2
20260505070012 0 311 0.0 4.0 0.00 0.00 0.00 1007.2
20260505064519 0 311 1.0 5.0 0.00 0.00 0.00 1007.5
20260505063011 0 256 0.0 4.0 0.00 0.00 0.00 1007.5
20260505061602 0 254 1.0 3.0 0.00 0.00 0.00 1007.7
20260505060055 0 254 0.0 3.0 0.00 0.00 0.00 1007.7
20260505054555 0 254 0.0 1.0 0.00 0.00 0.00 1007.7